Location: Ingoldesthorpe
(52.8667°N, 0.5167°E)
Time: 05:21:48
(UTC+00:00)

USA 234 - Pass Details

Date: 19 May 2025
Orbit: 1097 x 1111 km, 123.0° (Epoch: 11 June)

Event Time Altitude Azimuth Distance (km) Brightness Sun altitude
Rises 22:31:37 0° 65° (ENE) 3,922 6.2 -15.0°
Reaches altitude 10° 22:34:06 10° 65° (ENE) 2,965 5.6 -15.1°
Maximum altitude 22:40:39 83° 339° (NNW) 1,119 3.4 -15.4°
Drops below altitude 10° 22:47:14 10° 252° (WSW) 2,968 5.5 -15.7°
Sets 22:49:42 0° 252° (WSW) 3,926 6.1 -15.8°
